TimeEST,TemperatureF,Dew PointF,Humidity,Sea Level PressureIn,VisibilityMPH,Wind Direction,Wind SpeedMPH,Gust SpeedMPH,PrecipitationIn,Events,Conditions,WindDirDegrees,DateUTC
12:00 AM,44.1,30.0,58,29.94,-9999.0,NW,9.2,16.1,N/A,,Overcast,320,2013-02-16 05:00:00
1:00 AM,42.1,32.0,67,29.95,-9999.0,NW,9.2,-,N/A,,Overcast,320,2013-02-16 06:00:00
2:00 AM,39.9,33.1,77,29.94,-9999.0,NNW,5.8,-,N/A,,Overcast,340,2013-02-16 07:00:00
3:00 AM,37.4,33.8,87,29.94,-9999.0,Variable,5.8,-,N/A,,Overcast,0,2013-02-16 08:00:00
3:06 AM,37.9,33.1,83,29.94,-9999.0,Variable,4.6,-,N/A,,Overcast,0,2013-02-16 08:06:00
3:15 AM,37.4,33.8,87,29.93,-9999.0,Variable,3.5,-,0.00,Rain,Light Rain,0,2013-02-16 08:15:00
4:00 AM,37.0,33.1,86,29.91,-9999.0,Variable,3.5,-,0.00,,Overcast,0,2013-02-16 09:00:00
4:40 AM,37.4,33.8,87,29.93,-9999.0,NW,3.5,-,N/A,,Overcast,320,2013-02-16 09:40:00
5:00 AM,37.0,33.1,86,29.93,-9999.0,NNW,4.6,-,N/A,,Overcast,340,2013-02-16 10:00:00
7:00 AM,36.0,33.1,89,29.93,-9999.0,Calm,Calm,-,N/A,,Overcast,0,2013-02-16 12:00:00
7:24 AM,35.6,33.8,93,29.93,-9999.0,Calm,Calm,-,N/A,,Overcast,0,2013-02-16 12:24:00
7:43 AM,37.4,33.8,87,29.93,-9999.0,Variable,4.6,-,N/A,,Overcast,0,2013-02-16 12:43:00
8:00 AM,37.4,33.8,87,29.93,-9999.0,North,4.6,-,N/A,,Overcast,350,2013-02-16 13:00:00
8:06 AM,37.0,33.1,86,29.93,-9999.0,NNE,3.5,-,N/A,,Overcast,20,2013-02-16 13:06:00
8:17 AM,37.4,32.0,81,29.94,-9999.0,North,4.6,-,N/A,,Overcast,350,2013-02-16 13:17:00
8:25 AM,37.4,32.0,81,29.94,-9999.0,Variable,5.8,-,N/A,,Overcast,0,2013-02-16 13:25:00
9:00 AM,37.0,30.9,79,29.93,-9999.0,Variable,4.6,-,0.00,,Overcast,0,2013-02-16 14:00:00
9:20 AM,37.4,32.0,81,29.92,-9999.0,Variable,5.8,-,0.00,,Overcast,0,2013-02-16 14:20:00
9:55 AM,37.4,30.2,75,29.93,-9999.0,NNE,6.9,-,0.00,,Overcast,30,2013-02-16 14:55:00
10:00 AM,37.0,30.9,79,29.92,-9999.0,Variable,3.5,-,0.00,,Overcast,0,2013-02-16 15:00:00
10:28 AM,35.6,30.2,81,29.93,-9999.0,Variable,5.8,-,0.00,Snow,Light Snow,0,2013-02-16 15:28:00
10:55 AM,35.6,30.2,81,29.92,-9999.0,North,10.4,-,0.00,Snow,Light Snow,360,2013-02-16 15:55:00
11:00 AM,35.1,30.0,82,29.92,-9999.0,North,5.8,-,0.00,Snow,Light Snow,360,2013-02-16 16:00:00
11:32 AM,35.6,30.2,81,29.91,-9999.0,Variable,5.8,-,0.00,Snow,Light Snow,0,2013-02-16 16:32:00
11:40 AM,35.6,30.2,81,29.91,-9999.0,NNE,5.8,-,0.00,Snow,Light Snow,20,2013-02-16 16:40:00
11:49 AM,35.6,32.0,87,29.91,-9999.0,NNE,4.6,-,0.00,,Overcast,20,2013-02-16 16:49:00
12:00 PM,37.0,32.0,82,29.90,-9999.0,Calm,Calm,-,0.00,,Overcast,0,2013-02-16 17:00:00
12:15 PM,37.4,32.0,81,29.90,-9999.0,Variable,4.6,-,N/A,,Overcast,0,2013-02-16 17:15:00
12:28 PM,37.4,32.0,81,29.89,-9999.0,Variable,4.6,-,N/A,,Overcast,0,2013-02-16 17:28:00
12:46 PM,37.4,32.0,81,29.88,-9999.0,ENE,8.1,-,N/A,,Overcast,60,2013-02-16 17:46:00
2:00 PM,39.9,28.9,65,29.85,-9999.0,Variable,4.6,-,N/A,,Overcast,0,2013-02-16 19:00:00
3:00 PM,39.9,28.0,63,29.84,-9999.0,NE,3.5,-,N/A,,Overcast,50,2013-02-16 20:00:00
4:00 PM,39.0,23.0,53,29.83,-9999.0,North,6.9,-,N/A,,Overcast,350,2013-02-16 21:00:00
5:00 PM,37.0,23.0,57,29.82,-9999.0,Variable,5.8,-,N/A,,Overcast,0,2013-02-16 22:00:00
6:00 PM,36.0,21.0,55,29.81,-9999.0,NNW,6.9,-,N/A,,Overcast,330,2013-02-16 23:00:00
7:00 PM,36.0,19.9,52,29.81,-9999.0,NNW,8.1,-,N/A,,Overcast,330,2013-02-17 00:00:00
8:00 PM,35.1,19.0,52,29.80,-9999.0,NNW,5.8,-,N/A,,Overcast,330,2013-02-17 01:00:00
9:00 PM,34.0,16.0,48,29.80,-9999.0,North,5.8,-,N/A,,Overcast,350,2013-02-17 02:00:00
10:00 PM,33.1,17.1,52,29.77,-9999.0,Variable,4.6,-,N/A,,Overcast,0,2013-02-17 03:00:00
11:00 PM,33.1,19.0,56,29.74,-9999.0,North,8.1,20.7,N/A,,Overcast,350,2013-02-17 04:00:00